RH
40 41 42 42 43 43 44 44 44 45 44 45 45 45 45 46 46 46 47 47 48 48 49 49 50 50 50 50 51 51 52 52 52 53 53 52 52 51 50 49 48 47 46 44 42 40 39 37 35 34 33 33 32 32 33 33 34 34 35 35 36 37 37 38 39 39 40 41 41
41 41 42 43 44 44 45 45 45 45 45 45 45 45 45 46 46 46 47 47 48 49 49 49 50 50 50 50 51 51 52 52 53 53 53 53 53 52 52 51 50 49 47 46 44 42 40 38 37 36 35 35 34 35 35 35 36 37 37 38 38 39 39 40 40 41 42 42 43
42 42 43 44 44 45 45 45 45 45 45 45 45 45 46 46 46 47 47 48 49 49 49 49 50 50 50 50 50 51 51 52 53 53 54 54 54 53 53 52 51 50 49 47 45 44 42 40 39 38 37 37 37 37 38 38 38 39 39 40 40 40 41 41 42 42 43 44 44
43 43 44 45 45 45 45 45 45 45 45 45 46 46 46 47 47 47 48 49 49 49 50 50 50 50 50 50 50 51 51 52 53 53 54 54 54 54 53 53 52 51 50 48 47 45 43 42 40 39 39 39 39 39 39 40 40 40 41 41 41 42 42 43 43 44 44 45 45
44 44 45 45 45 45 45 45 45 45 46 46 46 47 47 48 48 49 49 49 50 50 50 50 50 50 50 50 51 51 51 52 52 53 54 55 55 54 54 54 53 52 51 49 48 46 44 43 41 41 40 40 40 40 40 40 41 41 41 42 42 42 43 44 44 45 45 45 45
44 45 46 46 46 45 45 45 45 46 46 47 48 48 49 49 49 50 50 50 50 50 50 51 50 50 50 50 51 51 51 52 53 54 54 55 55 55 55 55 54 53 52 51 49 47 45 43 42 42 41 41 40 41 41 41 41 41 42 42 43 43 44 44 44 45 45 45 45
45 45 46 46 45 45 45 45 45 46 47 48 49 49 50 50 50 50 50 50 50 50 50 50 50 50 50 51 51 51 52 52 53 54 55 55 55 56 56 56 56 54 53 51 49 47 45 44 42 42 41 40 40 40 40 40 41 41 42 43 43 43 44 44 44 44 45 45 44
46 45 45 45 45 45 45 46 47 47 48 49 50 50 50 50 50 50 50 50 50 50 50 50 50 50 50 51 51 52 52 53 54 54 55 55 56 56 56 56 56 55 53 51 49 47 44 43 42 41 40 40 40 40 40 40 41 42 43 43 43 44 44 44 44 44 44 44 44
45 45 45 45 45 46 46 47 48 49 49 50 51 51 50 50 50 50 49 49 50 50 50 50 50 50 51 51 51 52 53 53 54 54 55 55 56 56 57 57 56 54 52 50 47 45 43 42 41 40 40 40 40 40 41 41 42 42 43 43 44 44 44 44 44 44 44 43 43
45 45 45 45 46 47 47 48 49 50 50 51 50 50 50 49 49 49 49 49 50 50 50 50 50 50 51 51 51 52 52 53 54 54 55 55 56 56 57 56 55 54 51 48 46 44 42 41 40 40 40 40 41 41 41 42 42 43 43 43 44 44 44 44 44 44 43 43 42
45 45 46 46 47 48 49 49 50 50 50 50 50 49 49 49 49 49 49 49 49 50 49 50 50 50 51 51 51 52 52 53 53 54 55 55 56 56 56 56 54 52 50 47 45 43 42 41 40 40 40 41 41 42 42 42 43 43 44 44 44 45 45 45 44 44 43 43 42
46 46 47 48 49 49 50 50 50 50 50 49 49 49 48 48 48 48 49 49 49 49 49 49 50 50 50 50 51 51 51 52 53 54 55 55 56 56 56 55 53 51 48 46 44 43 42 41 41 41 41 41 42 42 43 43 43 44 44 45 45 45 45 45 44 44 43 42 41
47 48 49 49 50 50 51 50 50 49 49 49 48 48 47 47 48 48 48 49 49 49 49 49 49 49 50 50 50 51 51 52 53 54 55 56 56 56 55 54 52 49 47 45 44 42 42 41 41 41 42 42 42 43 43 43 44 44 45 45 45 45 45 45 44 43 42 41 40
49 49 50 51 51 51 50 50 49 49 48 48 47 47 47 47 47 47 48 48 48 49 49 49 49 49 49 50 50 51 52 53 54 55 56 56 56 56 54 53 50 48 46 44 43 42 42 42 42 42 42 42 42 43 43 44 44 45 45 45 45 45 45 44 43 42 41 40 38
51 51 51 51 51 50 50 49 48 47 47 46 46 46 46 46 46 47 47 48 48 49 49 49 49 49 50 50 51 52 53 54 55 56 56 57 56 55 53 51 48 46 45 43 42 42 42 42 42 42 42 42 43 43 43 44 45 45 45 45 45 45 44 43 42 41 39 37 36
52 52 52 51 51 50 49 48 47 46 46 46 46 45 45 46 46 47 48 48 49 49 50 50 50 50 51 51 52 53 54 55 56 56 57 57 56 54 52 49 47 45 44 43 42 42 42 42 42 42 42 42 42 43 44 44 45 45 45 45 44 44 43 42 40 38 37 35 33
53 52 52 51 50 49 48 47 46 46 45 45 45 45 45 46 46 47 48 49 50 50 51 51 51 52 52 53 54 54 55 56 57 57 57 56 54 52 50 48 46 44 43 42 42 42 42 42 42 42 42 42 43 43 44 44 45 45 45 44 44 43 41 39 37 35 34 32 30
53 53 52 51 49 48 47 46 46 45 45 45 45 46 46 47 47 48 49 50 51 51 52 52 53 54 55 55 56 56 57 58 58 57 57 55 53 51 48 46 44 43 42 42 42 42 42 42 42 42 42 42 43 44 44 44 45 44 44 43 42 40 39 36 34 32 31 29 29
53 52 51 50 49 48 47 46 45 45 45 45 46 46 47 48 49 50 51 51 52 53 53 54 55 56 57 57 58 59 59 59 59 57 56 53 51 49 46 44 43 42 42 41 41 42 42 42 42 43 43 43 44 44 44 45 44 44 43 42 40 38 36 34 32 30 29 28 28
53 52 51 50 49 47 47 46 46 46 46 46 47 48 49 49 50 51 52 53 54 54 55 56 57 58 59 60 60 60 60 59 58 57 54 51 49 47 44 43 42 42 42 42 42 42 42 43 43 43 44 44 44 44 44 44 43 42 41 39 37 35 33 31 30 28 28 27 27
53 52 50 49 48 47 47 46 46 47 47 48 49 49 50 51 52 53 53 54 55 56 57 58 59 60 61 61 62 62 61 59 57 55 52 49 47 45 43 42 42 42 42 42 43 43 43 44 44 44 45 45 45 44 44 43 42 40 39 37 35 33 31 30 29 28 27 26 26
52 51 50 49 48 48 47 47 48 48 49 50 50 51 52 52 53 53 54 55 56 57 59 59 60 62 62 63 63 62 61 59 56 53 50 47 45 44 43 43 43 43 43 44 44 45 45 45 45 45 45 45 44 43 42 41 40 38 36 35 33 32 30 29 28 27 26 25 24
52 51 50 50 49 49 49 49 49 50 50 51 52 52 53 53 54 55 55 56 57 59 60 61 62 63 63 64 63 62 60 57 54 51 48 46 44 44 44 44 44 45 45 46 46 46 46 46 46 45 45 44 43 42 40 39 37 36 35 33 32 30 29 28 26 25 24 23 23
52 51 51 50 50 50 50 50 51 52 52 53 53 54 54 54 55 56 57 58 59 60 61 62 63 64 64 64 62 61 58 55 52 49 47 45 45 45 45 45 46 46 47 47 47 47 46 46 46 45 44 43 42 40 39 37 36 34 33 32 31 29 28 26 25 24 23 23 23
53 52 52 51 51 51 52 52 53 53 54 54 54 55 55 56 56 57 58 59 60 61 62 63 64 64 64 63 61 59 56 53 51 48 47 46 46 46 47 47 48 48 48 47 47 47 46 45 45 44 42 41 40 38 37 36 34 33 31 30 29 27 25 24 23 22 22 22 23
53 53 52 52 53 53 53 54 54 54 55 55 55 56 56 57 57 58 59 60 61 62 63 64 64 64 63 62 60 58 55 52 50 48 47 47 47 48 48 49 49 48 48 47 47 46 45 45 43 42 41 39 38 36 35 34 32 31 29 28 26 25 23 22 21 21 22 22 23
54 54 54 54 54 54 55 55 55 55 55 56 56 57 57 58 58 59 60 61 62 63 64 65 64 64 63 62 60 57 54 52 49 48 47 47 48 49 49 49 49 48 47 47 46 45 44 44 42 41 39 38 36 35 33 32 30 29 27 25 24 23 22 21 21 21 22 22 23
55 55 55 55 55 55 56 56 56 56 56 56 57 58 58 59 60 61 62 63 64 64 65 64 64 63 62 61 58 56 54 51 50 49 48 48 49 49 50 49 49 48 47 46 45 45 44 43 41 40 38 36 34 33 31 29 28 26 25 23 23 22 21 21 21 22 22 23 24
56 56 56 56 56 56 56 56 56 57 57 58 58 59 60 61 62 62 63 64 65 65 64 63 63 62 61 59 57 55 53 51 50 49 49 49 49 49 49 49 48 47 46 45 44 43 42 41 40 38 36 34 32 31 29 27 26 24 23 22 22 21 21 21 22 22 23 24 24
56 56 56 56 57 57 57 57 57 57 58 59 59 60 61 62 63 64 64 65 64 64 63 63 62 61 60 58 56 54 52 51 50 49 50 50 50 49 49 48 47 46 45 45 43 42 41 39 38 36 34 32 30 28 27 26 24 23 22 22 22 22 22 22 22 23 23 24 25
56 56 56 57 57 57 57 57 58 58 59 60 61 61 63 63 64 64 64 64 63 63 62 61 61 60 58 57 55 54 52 51 50 50 50 50 50 49 48 48 47 46 45 43 42 40 39 37 36 34 32 30 28 27 26 24 24 23 22 22 22 22 22 23 23 23 24 25 26
56 56 57 57 57 58 58 58 58 59 60 60 62 63 63 64 64 64 63 63 62 61 61 60 60 59 58 56 55 53 52 51 51 51 50 50 50 49 48 47 46 45 43 41 40 38 37 35 33 31 30 28 27 26 25 24 23 23 22 22 22 23 23 23 23 24 25 26 28
56 56 57 58 58 59 59 59 59 60 61 61 62 63 64 64 64 63 62 62 61 61 61 60 60 58 57 56 54 53 52 51 51 51 51 50 49 49 48 46 44 43 41 39 37 36 34 32 31 29 28 27 26 25 24 23 23 23 23 23 23 23 23 23 24 25 26 28 31
56 57 58 59 59 60 60 60 60 61 62 62 63 63 63 63 63 63 62 62 62 61 61 61 60 58 57 55 54 53 52 51 51 51 51 50 49 48 46 44 42 40 38 36 35 33 32 30 29 28 27 26 25 25 24 23 23 23 23 23 23 23 23 24 25 26 28 30 32
57 58 59 60 60 61 61 61 61 62 62 63 63 63 63 63 63 63 63 63 63 62 61 60 59 58 56 55 53 53 52 51 51 50 50 49 48 46 44 41 39 37 36 34 32 31 29 28 27 27 26 25 25 24 24 24 23 23 23 23 23 23 23 24 25 27 29 32 35
59 60 60 61 61 61 61 62 62 62 63 63 64 64 64 64 64 64 64 64 63 62 61 60 58 57 56 54 53 53 52 51 51 50 49 47 46 43 41 38 36 34 33 31 30 29 28 27 26 26 25 25 25 24 24 24 23 23 23 23 23 23 24 24 26 28 30 34 38
60 60 61 61 62 62 62 62 62 63 63 64 64 64 65 64 64 64 64 64 63 62 60 59 58 56 55 54 53 53 52 51 50 49 47 45 43 40 37 35 33 32 30 29 28 28 27 26 26 26 25 25 25 24 24 24 23 23 22 22 23 23 24 25 26 29 31 35 39
60 61 61 61 61 62 62 62 63 63 64 64 65 65 65 65 65 65 65 65 63 61 60 58 57 56 55 54 53 52 51 50 49 47 45 42 39 37 34 32 31 29 28 28 27 27 26 26 25 25 25 25 25 24 24 23 23 22 22 22 22 23 24 26 27 29 32 36 40
61 61 61 61 61 62 62 63 63 64 64 65 65 65 65 65 65 65 65 64 63 61 59 58 56 56 55 54 53 51 49 48 46 44 42 39 36 33 31 30 28 27 27 26 26 26 25 25 25 25 25 25 25 24 23 23 22 22 22 22 23 24 25 27 29 31 33 36 40
60 60 61 61 62 63 63 64 64 65 65 65 65 65 65 65 65 65 65 64 62 61 59 58 56 55 54 53 52 50 47 45 43 40 38 35 32 30 29 27 26 26 25 25 25 25 25 25 25 25 25 24 24 24 23 23 22 22 22 23 24 25 26 28 30 32 34 36 39
61 61 62 63 63 64 64 65 65 65 65 65 65 66 66 66 65 64 63 62 61 60 58 57 55 54 53 52 50 47 44 41 39 36 34 32 29 28 27 26 25 25 25 24 25 24 24 24 24 24 24 24 24 24 23 23 23 23 23 24 25 27 28 30 31 33 35 36 38